QPF
0.00 0.00 0.00 0.00 0.00 0.00 0.00 0.00 0.00 0.00 0.00 0.00 0.00 0.00 0.00 0.00 0.00 0.00 0.00 0.00 0.00 0.00 0.00 0.00 0.00 0.00 0.00 0.00 0.00 0.00 0.00 0.00 0.00 0.00 0.00 0.00 0.00 0.00 0.00 0.00 0.00 0.00 0.00 0.00 0.00 0.00 0.00 0.00 0.00
0.00 0.00 0.00 0.00 0.00 0.00 0.00 0.00 0.00 0.00 0.00 0.00 0.00 0.00 0.00 0.00 0.00 0.00 0.00 0.00 0.00 0.00 0.00 0.00 0.00 0.00 0.00 0.00 0.00 0.00 0.00 0.00 0.00 0.00 0.00 0.00 0.00 0.00 0.00 0.00 0.00 0.00 0.00 0.00 0.00 0.00 0.00 0.00 0.00
0.00 0.00 0.00 0.00 0.00 0.00 0.00 0.00 0.00 0.00 0.00 0.00 0.00 0.00 0.00 0.00 0.00 0.00 0.00 0.00 0.00 0.00 0.00 0.00 0.00 0.00 0.00 0.00 0.00 0.00 0.00 0.00 0.00 0.00 0.00 0.00 0.00 0.00 0.00 0.00 0.00 0.00 0.00 0.00 0.00 0.00 0.00 0.00 0.00
0.00 0.00 0.00 0.00 0.00 0.00 0.00 0.00 0.00 0.00 0.00 0.00 0.00 0.00 0.00 0.00 0.00 0.00 0.00 0.00 0.00 0.00 0.00 0.00 0.00 0.00 0.00 0.00 0.00 0.00 0.00 0.00 0.00 0.00 0.00 0.00 0.00 0.00 0.00 0.00 0.00 0.00 0.00 0.00 0.00 0.00 0.00 0.00 0.00
0.00 0.00 0.00 0.00 0.00 0.00 0.00 0.00 0.00 0.00 0.00 0.00 0.00 0.00 0.00 0.00 0.00 0.00 0.00 0.00 0.00 0.00 0.00 0.00 0.00 0.00 0.00 0.00 0.00 0.00 0.00 0.00 0.00 0.00 0.00 0.00 0.00 0.00 0.00 0.00 0.00 0.00 0.00 0.00 0.00 0.00 0.00 0.00 0.00
0.00 0.00 0.00 0.00 0.00 0.00 0.00 0.00 0.00 0.00 0.00 0.00 0.00 0.00 0.00 0.00 0.00 0.00 0.00 0.00 0.00 0.00 0.00 0.00 0.00 0.00 0.00 0.00 0.00 0.00 0.00 0.00 0.00 0.00 0.00 0.00 0.00 0.00 0.00 0.00 0.00 0.00 0.00 0.00 0.00 0.00 0.00 0.00 0.00
0.00 0.00 0.00 0.00 0.00 0.00 0.00 0.00 0.00 0.00 0.00 0.00 0.00 0.00 0.00 0.00 0.00 0.00 0.00 0.00 0.00 0.00 0.01 0.01 0.00 0.00 0.00 0.00 0.00 0.00 0.00 0.00 0.00 0.00 0.00 0.00 0.00 0.00 0.00 0.00 0.00 0.00 0.00 0.00 0.00 0.00 0.00 0.00 0.00
0.00 0.00 0.00 0.00 0.00 0.00 0.00 0.00 0.00 0.00 0.00 0.00 0.00 0.00 0.00 0.00 0.00 0.00 0.00 0.00 0.00 0.00 0.01 0.01 0.01 0.00 0.00 0.00 0.00 0.00 0.00 0.00 0.00 0.00 0.00 0.00 0.00 0.00 0.00 0.00 0.00 0.00 0.00 0.00 0.00 0.00 0.00 0.00 0.00
0.00 0.00 0.00 0.00 0.00 0.00 0.00 0.00 0.00 0.00 0.00 0.00 0.00 0.00 0.00 0.00 0.00 0.00 0.01 0.01 0.00 0.01 0.01 0.01 0.01 0.00 0.00 0.00 0.00 0.00 0.00 0.00 0.00 0.00 0.00 0.00 0.00 0.00 0.00 0.00 0.00 0.00 0.00 0.00 0.00 0.00 0.00 0.00 0.00
0.00 0.00 0.00 0.00 0.00 0.00 0.00 0.00 0.00 0.00 0.00 0.00 0.00 0.00 0.00 0.00 0.00 0.00 0.00 0.00 0.00 0.01 0.01 0.00 0.00 0.00 0.00 0.00 0.00 0.00 0.00 0.00 0.00 0.00 0.00 0.00 0.00 0.00 0.00 0.00 0.00 0.00 0.01 0.00 0.00 0.00 0.00 0.00 0.00
0.00 0.00 0.00 0.00 0.00 0.00 0.00 0.00 0.00 0.00 0.00 0.00 0.00 0.00 0.00 0.00 0.00 0.00 0.00 0.00 0.00 0.00 0.00 0.00 0.00 0.00 0.00 0.00 0.00 0.00 0.00 0.00 0.00 0.00 0.01 0.01 0.01 0.02 0.03 0.03 0.09 0.06 0.01 0.00 0.00 0.00 0.01 0.00 0.00
0.00 0.00 0.00 0.00 0.00 0.00 0.00 0.00 0.00 0.00 0.00 0.00 0.00 0.01 0.00 0.00 0.00 0.00 0.00 0.00 0.00 0.00 0.00 0.00 0.00 0.00 0.00 0.00 0.00 0.00 0.00 0.00 0.00 0.01 0.01 0.04 0.07 0.05 0.01 0.04 0.16 0.18 0.04 0.02 0.01 0.00 0.00 0.00 0.00
0.00 0.00 0.00 0.00 0.00 0.00 0.00 0.00 0.00 0.00 0.00 0.00 0.00 0.01 0.00 0.00 0.00 0.00 0.00 0.00 0.00 0.00 0.00 0.00 0.00 0.00 0.00 0.00 0.00 0.00 0.00 0.00 0.00 0.00 0.00 0.02 0.03 0.01 0.00 0.01 0.08 0.09 0.04 0.00 0.00 0.00 0.00 0.00 0.00
0.00 0.00 0.00 0.00 0.00 0.00 0.00 0.00 0.00 0.00 0.00 0.00 0.00 0.00 0.00 0.00 0.00 0.00 0.00 0.00 0.00 0.00 0.00 0.00 0.00 0.00 0.00 0.00 0.00 0.00 0.00 0.00 0.00 0.00 0.00 0.00 0.00 0.00 0.00 0.00 0.00 0.00 0.00 0.00 0.00 0.00 0.00 0.00 0.00
0.00 0.00 0.00 0.00 0.00 0.00 0.00 0.00 0.00 0.01 0.01 0.01 0.02 0.02 0.00 0.00 0.00 0.00 0.00 0.00 0.00 0.00 0.00 0.00 0.00 0.00 0.00 0.00 0.00 0.00 0.00 0.00 0.00 0.00 0.00 0.00 0.00 0.00 0.00 0.00 0.00 0.00 0.00 0.00 0.00 0.00 0.00 0.00 0.00
0.00 0.00 0.00 0.00 0.00 0.00 0.00 0.00 0.00 0.01 0.04 0.01 0.02 0.01 0.00 0.00 0.00 0.00 0.00 0.00 0.01 0.00 0.00 0.00 0.00 0.00 0.00 0.00 0.00 0.00 0.00 0.00 0.00 0.00 0.00 0.00 0.00 0.00 0.00 0.00 0.00 0.00 0.00 0.00 0.00 0.00 0.00 0.00 0.00
0.00 0.00 0.00 0.00 0.00 0.00 0.00 0.00 0.00 0.01 0.02 0.03 0.03 0.01 0.00 0.00 0.00 0.00 0.00 0.01 0.07 0.02 0.01 0.00 0.00 0.00 0.00 0.00 0.00 0.00 0.00 0.00 0.00 0.00 0.00 0.00 0.00 0.00 0.00 0.00 0.00 0.00 0.00 0.00 0.00 0.00 0.00 0.00 0.00
0.00 0.00 0.00 0.00 0.00 0.00 0.00 0.00 0.00 0.00 0.00 0.01 0.00 0.00 0.00 0.00 0.00 0.00 0.00 0.01 0.11 0.11 0.02 0.00 0.00 0.00 0.00 0.01 0.00 0.00 0.00 0.00 0.00 0.00 0.00 0.00 0.00 0.00 0.00 0.00 0.00 0.00 0.00 0.00 0.00 0.00 0.00 0.00 0.00
0.00 0.00 0.00 0.00 0.00 0.00 0.00 0.00 0.00 0.00 0.00 0.00 0.00 0.00 0.00 0.00 0.00 0.01 0.01 0.03 0.29 0.30 0.06 0.00 0.00 0.00 0.01 0.02 0.00 0.00 0.00 0.00 0.00 0.00 0.00 0.00 0.00 0.00 0.00 0.00 0.00 0.00 0.00 0.00 0.00 0.00 0.00 0.00 0.00
0.00 0.00 0.00 0.00 0.00 0.00 0.00 0.00 0.00 0.00 0.00 0.00 0.00 0.00 0.00 0.00 0.01 0.02 0.01 0.04 0.25 0.31 0.05 0.01 0.00 0.02 0.02 0.00 0.00 0.00 0.00 0.00 0.00 0.00 0.00 0.00 0.00 0.00 0.00 0.00 0.00 0.00 0.00 0.00 0.00 0.00 0.00 0.00 0.00
0.00 0.00 0.00 0.00 0.00 0.00 0.00 0.00 0.00 0.00 0.00 0.00 0.00 0.00 0.00 0.00 0.01 0.02 0.01 0.03 0.02 0.07 0.01 0.00 0.01 0.01 0.00 0.00 0.00 0.00 0.00 0.00 0.00 0.00 0.00 0.00 0.00 0.00 0.00 0.00 0.00 0.00 0.00 0.00 0.00 0.00 0.00 0.00 0.00
0.00 0.00 0.00 0.00 0.00 0.00 0.00 0.00 0.00 0.00 0.00 0.00 0.00 0.00 0.00 0.00 0.01 0.02 0.01 0.03 0.02 0.06 0.01 0.02 0.00 0.00 0.00 0.00 0.00 0.00 0.00 0.00 0.00 0.00 0.00 0.00 0.00 0.00 0.00 0.00 0.00 0.00 0.00 0.00 0.00 0.00 0.00 0.00 0.00
0.00 0.00 0.00 0.00 0.00 0.00 0.00 0.00 0.00 0.00 0.00 0.00 0.00 0.00 0.00 0.00 0.01 0.02 0.02 0.04 0.09 0.16 0.07 0.02 0.01 0.01 0.00 0.00 0.00 0.00 0.00 0.00 0.00 0.00 0.00 0.00 0.00 0.00 0.00 0.00 0.00 0.00 0.00 0.00 0.00 0.00 0.00 0.00 0.00
0.00 0.00 0.00 0.00 0.00 0.00 0.00 0.00 0.00 0.00 0.00 0.00 0.00 0.00 0.00 0.00 0.01 0.02 0.04 0.08 0.08 0.04 0.11 0.02 0.03 0.04 0.00 0.00 0.00 0.00 0.00 0.00 0.00 0.00 0.00 0.00 0.00 0.00 0.00 0.00 0.00 0.00 0.00 0.00 0.00 0.00 0.00 0.00 0.00
0.00 0.00 0.00 0.00 0.00 0.00 0.00 0.00 0.00 0.00 0.00 0.00 0.00 0.00 0.00 0.00 0.01 0.00 0.00 0.01 0.04 0.01 0.01 0.01 0.00 0.00 0.00 0.00 0.00 0.00 0.00 0.00 0.00 0.00 0.00 0.00 0.00 0.00 0.00 0.00 0.00 0.00 0.00 0.00 0.00 0.00 0.00 0.00 0.00
0.00 0.00 0.00 0.00 0.00 0.00 0.00 0.00 0.00 0.00 0.00 0.00 0.00 0.00 0.00 0.00 0.00 0.01 0.02 0.05 0.09 0.04 0.01 0.00 0.02 0.02 0.00 0.00 0.00 0.00 0.00 0.00 0.00 0.00 0.00 0.00 0.00 0.00 0.00 0.00 0.00 0.00 0.00 0.00 0.00 0.00 0.00 0.00 0.00
0.00 0.00 0.00 0.00 0.00 0.00 0.00 0.00 0.00 0.00 0.00 0.00 0.00 0.00 0.00 0.00 0.00 0.00 0.01 0.09 0.08 0.03 0.04 0.02 0.01 0.05 0.00 0.00 0.00 0.00 0.00 0.00 0.00 0.00 0.00 0.00 0.00 0.00 0.00 0.00 0.00 0.00 0.00 0.00 0.00 0.00 0.00 0.00 0.00
0.00 0.00 0.00 0.00 0.00 0.00 0.00 0.00 0.00 0.00 0.00 0.00 0.00 0.00 0.00 0.00 0.00 0.00 0.00 0.04 0.01 0.02 0.11 0.09 0.06 0.09 0.02 0.00 0.00 0.00 0.00 0.00 0.00 0.00 0.00 0.00 0.00 0.00 0.00 0.00 0.00 0.00 0.00 0.00 0.00 0.00 0.00 0.00 0.00
0.00 0.00 0.00 0.00 0.00 0.00 0.00 0.00 0.00 0.00 0.00 0.00 0.00 0.00 0.00 0.00 0.00 0.00 0.00 0.00 0.02 0.04 0.05 0.04 0.04 0.05 0.01 0.00 0.00 0.00 0.00 0.00 0.00 0.00 0.00 0.00 0.00 0.00 0.00 0.00 0.00 0.00 0.00 0.00 0.00 0.00 0.00 0.00 0.00
0.00 0.00 0.00 0.00 0.00 0.00 0.00 0.00 0.00 0.00 0.00 0.00 0.00 0.00 0.00 0.00 0.00 0.00 0.00 0.00 0.00 0.00 0.00 0.03 0.01 0.02 0.03 0.01 0.00 0.00 0.00 0.00 0.00 0.00 0.00 0.00 0.00 0.00 0.00 0.00 0.00 0.00 0.00 0.00 0.00 0.00 0.00 0.00 0.00
MSLP
1012.67 1012.58 1011.89 1010.09 1008.72 1007.21 1005.64 1005.61 1005.78 1005.22 1005.64 1006.41 1006.90 1006.71 1006.93 1007.27 1008.21 1009.82 1011.48 1012.05 1012.40 1013.28 1014.43 1015.62 1016.41 1016.86 1017.25 1017.54 1017.74 1017.80 1018.09 1018.21 1018.47 1018.69 1018.79 1018.99 1019.19 1019.25 1019.34 1019.36 1019.31 1019.36 1019.43 1019.41 1019.51 1019.60 1019.66 1019.72 1019.85
1011.93 1011.98 1011.51 1009.38 1008.06 1006.23 1005.39 1005.58 1005.65 1005.52 1006.24 1007.10 1007.31 1007.62 1007.87 1008.42 1010.03 1011.19 1011.85 1012.50 1012.65 1013.41 1014.59 1015.33 1016.54 1016.97 1017.43 1017.79 1017.94 1018.08 1018.28 1018.53 1018.66 1018.86 1019.15 1019.24 1019.46 1019.59 1019.64 1019.79 1019.82 1019.78 1019.77 1019.76 1019.85 1019.98 1020.00 1020.01 1019.99
1012.17 1011.75 1010.46 1008.30 1007.37 1006.26 1005.63 1005.64 1006.03 1006.08 1007.13 1007.27 1007.54 1007.94 1008.21 1009.41 1010.78 1011.18 1011.88 1012.56 1012.92 1013.71 1014.43 1015.74 1016.74 1017.14 1017.56 1017.96 1018.14 1018.34 1018.67 1018.89 1019.01 1019.15 1019.35 1019.55 1019.72 1019.83 1019.93 1020.05 1020.17 1020.15 1020.13 1020.23 1020.32 1020.38 1020.47 1020.60 1020.60
1011.50 1010.57 1009.88 1008.11 1006.68 1007.18 1006.94 1006.55 1006.88 1006.92 1007.74 1007.92 1007.78 1008.40 1010.06 1011.00 1011.21 1011.56 1012.50 1012.90 1013.36 1013.93 1014.55 1016.63 1017.03 1017.48 1017.89 1018.18 1018.35 1018.56 1018.83 1019.09 1019.31 1019.48 1019.62 1019.77 1019.97 1020.12 1020.25 1020.30 1020.39 1020.47 1020.53 1020.61 1020.70 1020.78 1020.96 1021.11 1021.19
1011.45 1009.45 1007.86 1006.65 1006.53 1006.87 1007.56 1007.24 1007.24 1007.33 1007.51 1007.94 1008.40 1008.84 1010.37 1011.53 1011.84 1012.34 1012.76 1013.43 1014.12 1014.09 1015.14 1016.61 1017.39 1017.76 1018.14 1018.43 1018.70 1018.94 1019.19 1019.35 1019.51 1019.75 1020.00 1020.20 1020.37 1020.49 1020.61 1020.67 1020.75 1020.79 1020.93 1021.06 1021.18 1021.28 1021.35 1021.47 1021.64
1010.38 1008.97 1006.96 1005.86 1006.11 1007.08 1007.39 1007.15 1007.04 1007.39 1007.61 1008.11 1008.71 1009.49 1011.09 1011.91 1012.58 1013.24 1013.41 1014.53 1014.33 1014.66 1015.63 1016.70 1017.71 1018.06 1018.39 1018.70 1018.89 1019.13 1019.41 1019.63 1019.83 1020.04 1020.24 1020.53 1020.78 1020.89 1021.03 1021.06 1021.20 1021.27 1021.43 1021.58 1021.67 1021.77 1021.95 1022.06 1022.16
1009.85 1008.03 1006.31 1005.99 1005.82 1006.19 1006.94 1006.90 1006.85 1006.92 1007.13 1007.35 1008.12 1009.13 1011.62 1012.09 1013.30 1013.95 1014.42 1014.79 1015.00 1015.57 1015.63 1016.46 1017.31 1018.27 1018.79 1019.12 1019.39 1019.53 1019.70 1019.90 1020.08 1020.29 1020.51 1020.74 1020.92 1021.05 1021.23 1021.34 1021.45 1021.58 1021.80 1021.94 1022.06 1022.24 1022.42 1022.68 1022.87
1009.24 1007.91 1006.14 1005.49 1005.28 1005.59 1006.80 1006.61 1006.71 1006.67 1006.48 1006.87 1008.14 1008.77 1010.98 1012.17 1013.39 1014.07 1014.61 1015.23 1015.74 1016.09 1015.96 1016.51 1017.08 1017.63 1018.30 1019.07 1019.56 1019.73 1019.90 1020.08 1020.37 1020.59 1020.73 1020.93 1021.08 1021.28 1021.35 1021.42 1021.66 1021.75 1021.94 1022.24 1022.53 1022.81 1023.05 1023.34 1023.52
1009.78 1007.76 1005.41 1004.90 1005.06 1005.72 1006.55 1006.48 1006.44 1006.80 1006.86 1007.60 1008.27 1008.66 1009.58 1012.02 1013.40 1014.16 1014.83 1015.44 1016.01 1016.37 1016.31 1016.66 1017.10 1017.56 1017.81 1018.55 1019.51 1019.91 1020.09 1020.20 1020.34 1020.55 1020.65 1020.63 1020.09 1020.54 1020.86 1021.70 1022.08 1022.21 1022.43 1022.66 1022.90 1023.19 1023.48 1023.82 1023.96
1008.66 1006.83 1005.13 1005.11 1005.18 1005.92 1006.34 1006.13 1005.87 1006.73 1006.57 1007.56 1008.77 1009.50 1010.65 1012.19 1013.05 1013.72 1014.29 1015.11 1015.81 1016.43 1016.74 1017.14 1017.56 1017.57 1017.91 1018.17 1018.96 1019.09 1019.59 1019.51 1019.56 1019.78 1020.06 1019.85 1020.18 1020.33 1020.74 1021.95 1022.38 1022.63 1022.89 1023.22 1023.43 1023.54 1023.61 1023.58 1023.80
1007.69 1006.08 1005.79 1005.46 1005.75 1005.93 1006.05 1006.06 1006.08 1005.99 1006.32 1006.94 1008.22 1010.04 1011.17 1012.18 1012.91 1013.47 1014.03 1014.64 1015.29 1016.03 1016.70 1017.47 1018.30 1017.93 1017.84 1017.99 1018.30 1018.48 1018.79 1019.17 1019.52 1019.72 1019.74 1020.07 1020.22 1020.69 1021.12 1021.54 1022.19 1022.63 1022.84 1023.04 1023.46 1023.47 1022.97 1023.20 1023.28
1007.37 1006.49 1006.60 1006.03 1006.55 1006.34 1006.01 1005.91 1005.80 1005.94 1005.93 1006.85 1008.15 1010.27 1011.46 1011.95 1012.33 1012.68 1012.81 1013.50 1014.72 1015.52 1016.12 1017.27 1018.20 1018.01 1017.95 1018.01 1018.11 1018.29 1018.46 1018.94 1019.14 1019.65 1020.06 1020.39 1020.69 1020.86 1020.49 1020.96 1021.82 1022.21 1022.53 1022.83 1023.21 1023.40 1023.79 1024.12 1024.47
1007.09 1006.32 1006.80 1006.70 1006.41 1005.92 1006.24 1005.45 1005.78 1005.91 1006.40 1007.65 1008.87 1010.40 1011.16 1011.62 1012.08 1012.48 1012.40 1013.12 1014.24 1014.79 1015.50 1016.90 1017.83 1017.59 1017.95 1018.21 1018.17 1018.25 1018.94 1019.05 1019.64 1019.99 1020.27 1020.38 1020.58 1020.72 1020.77 1020.92 1021.85 1022.78 1022.72 1023.21 1023.60 1024.29 1024.61 1024.68 1024.96
1006.85 1006.61 1006.27 1006.25 1005.89 1005.79 1005.66 1005.32 1005.48 1005.88 1007.11 1007.82 1009.20 1010.05 1010.88 1011.00 1011.27 1012.08 1012.28 1012.87 1013.87 1014.57 1015.41 1016.32 1017.02 1017.31 1017.78 1018.03 1018.63 1018.95 1019.16 1019.77 1019.81 1020.11 1020.41 1020.68 1020.60 1020.95 1021.00 1021.32 1022.44 1023.07 1023.21 1023.58 1024.24 1024.83 1024.81 1025.11 1025.88
1007.00 1006.64 1006.18 1005.50 1005.35 1005.19 1005.91 1005.41 1004.46 1005.91 1007.29 1007.85 1009.07 1009.68 1010.49 1010.87 1011.44 1011.71 1012.20 1012.96 1013.90 1014.63 1015.54 1016.12 1016.39 1017.21 1017.67 1018.32 1018.79 1018.99 1019.35 1019.54 1019.87 1020.36 1020.86 1020.96 1021.01 1021.27 1021.43 1022.13 1022.52 1022.74 1023.34 1024.22 1024.63 1024.60 1025.00 1025.36 1025.98
1006.86 1006.35 1004.90 1004.66 1004.91 1004.99 1005.54 1003.87 1004.81 1005.64 1006.97 1007.70 1008.39 1009.01 1009.75 1010.32 1010.92 1011.70 1012.39 1013.23 1014.15 1014.48 1015.97 1015.81 1016.26 1017.27 1017.76 1018.34 1018.76 1019.10 1019.61 1019.74 1020.13 1020.49 1020.88 1021.20 1021.39 1021.47 1021.44 1021.42 1021.65 1022.26 1023.29 1023.64 1024.08 1024.53 1025.02 1025.49 1026.06
1005.77 1004.04 1003.96 1003.61 1004.12 1004.54 1004.45 1003.98 1004.24 1005.40 1006.53 1007.22 1007.87 1008.61 1008.90 1009.87 1010.63 1011.75 1012.70 1013.40 1014.11 1014.91 1016.17 1016.08 1016.42 1017.26 1017.92 1018.71 1018.96 1019.55 1020.12 1020.02 1020.44 1020.73 1020.97 1021.50 1021.62 1021.75 1021.52 1021.63 1022.01 1022.59 1022.91 1023.40 1023.86 1024.53 1025.15 1025.73 1026.19
1003.12 1003.36 1002.74 1002.81 1003.29 1004.01 1004.01 1004.02 1004.19 1005.26 1005.72 1006.11 1006.94 1007.64 1008.05 1009.03 1009.89 1011.27 1012.47 1013.63 1014.62 1015.63 1016.26 1015.98 1016.67 1017.55 1018.29 1018.72 1019.21 1019.69 1020.11 1020.43 1020.74 1020.91 1021.21 1021.63 1021.71 1021.95 1021.91 1022.05 1022.35 1022.53 1022.83 1023.44 1023.86 1024.80 1025.41 1025.87 1026.53
1003.16 1002.96 1002.62 1002.73 1002.79 1003.69 1003.30 1003.73 1003.51 1004.31 1005.16 1005.13 1005.77 1006.50 1007.08 1008.35 1009.57 1010.98 1012.20 1013.86 1014.81 1015.84 1016.00 1016.05 1016.67 1017.90 1018.51 1018.54 1018.94 1019.47 1019.79 1020.42 1020.93 1021.23 1021.59 1021.74 1021.91 1021.95 1022.05 1022.04 1022.46 1022.49 1022.88 1023.33 1024.16 1024.83 1025.52 1026.37 1027.06
1003.66 1002.73 1002.71 1003.07 1003.04 1003.52 1003.11 1003.04 1003.38 1004.08 1003.99 1004.11 1004.60 1005.40 1006.36 1008.07 1009.25 1010.85 1012.44 1013.62 1014.45 1014.71 1015.61 1016.08 1016.91 1017.77 1018.16 1018.39 1018.64 1019.04 1019.77 1020.32 1020.96 1021.43 1021.79 1021.93 1022.10 1022.12 1022.20 1022.13 1022.35 1022.51 1022.99 1023.90 1024.62 1025.20 1025.65 1026.35 1026.78
1003.84 1002.77 1002.52 1002.47 1002.97 1003.41 1002.95 1002.86 1002.88 1003.30 1003.67 1003.52 1003.81 1004.71 1005.87 1007.65 1009.24 1011.04 1012.31 1013.16 1014.19 1014.57 1014.75 1015.71 1016.54 1017.53 1017.92 1018.29 1018.92 1019.42 1020.24 1020.89 1021.22 1021.54 1021.82 1022.19 1022.26 1022.34 1022.59 1022.53 1022.46 1022.99 1023.58 1024.15 1024.77 1025.07 1025.08 1025.69 1026.39
1003.19 1003.31 1002.74 1002.68 1002.34 1001.69 1002.07 1000.77 1001.30 1001.82 1002.36 1002.54 1003.14 1004.08 1005.51 1007.34 1009.25 1010.98 1011.94 1012.96 1013.61 1014.04 1014.75 1015.20 1016.25 1017.12 1017.82 1018.56 1018.78 1019.21 1019.45 1019.83 1020.46 1021.06 1021.74 1022.22 1022.50 1022.62 1022.69 1022.91 1023.00 1023.36 1023.49 1024.08 1024.58 1024.98 1025.16 1025.30 1025.76
1002.94 1003.22 1003.44 1002.94 1002.15 1001.51 1001.29 1000.42 999.31 1000.66 1000.86 1001.30 1002.44 1003.88 1005.33 1006.79 1008.52 1010.33 1011.47 1012.61 1013.42 1013.86 1014.39 1015.14 1016.11 1016.95 1017.76 1018.23 1018.54 1019.07 1019.23 1019.91 1020.71 1021.30 1022.11 1022.35 1022.81 1023.01 1023.07 1023.24 1023.42 1023.61 1023.65 1024.00 1024.39 1024.97 1025.19 1025.38 1025.31
1002.98 1003.26 1003.55 1003.32 1002.46 1001.13 999.57 999.58 997.73 998.08 998.98 1000.33 1001.46 1003.24 1005.30 1006.50 1008.39 1010.03 1011.25 1012.44 1013.31 1013.84 1014.50 1014.81 1015.85 1016.73 1017.47 1017.92 1018.64 1018.85 1019.35 1020.06 1020.57 1021.14 1021.73 1022.30 1022.70 1023.13 1023.54 1023.62 1023.77 1023.94 1024.13 1024.39 1024.65 1025.10 1025.22 1025.34 1025.65
1002.73 1002.34 1002.08 1002.41 1001.84 999.95 999.65 998.94 996.92 996.71 998.10 999.08 1000.10 1002.27 1004.74 1006.19 1007.84 1009.31 1010.64 1011.74 1012.84 1013.57 1014.39 1014.65 1015.42 1016.25 1017.19 1017.74 1018.45 1018.84 1019.54 1020.12 1020.47 1020.87 1021.39 1022.17 1022.62 1023.16 1023.79 1023.86 1024.10 1024.18 1024.66 1024.80 1025.12 1025.32 1025.22 1025.48 1025.86
1001.35 1000.88 1000.05 999.91 999.32 998.94 998.46 997.53 996.70 996.68 997.06 998.59 999.74 1001.87 1004.20 1005.70 1007.03 1008.36 1009.96 1011.19 1012.40 1013.25 1014.27 1014.63 1015.05 1015.76 1016.72 1017.52 1018.16 1018.91 1019.46 1019.82 1020.29 1020.78 1021.22 1021.91 1022.39 1023.01 1023.81 1024.02 1024.28 1024.66 1025.00 1025.12 1025.39 1025.65 1025.54 1025.91 1026.31
1000.37 999.90 999.17 998.81 998.58 998.29 997.99 997.77 996.95 996.73 997.00 997.71 998.90 1000.94 1002.82 1004.70 1006.22 1007.64 1009.41 1010.71 1011.88 1012.80 1013.66 1014.11 1014.71 1015.59 1016.32 1017.16 1018.06 1018.84 1019.31 1019.69 1020.20 1020.84 1021.38 1022.11 1022.63 1023.18 1023.82 1024.06 1024.40 1024.83 1025.15 1025.36 1025.65 1026.02 1026.17 1026.36 1026.82
999.36 999.26 998.48 998.52 998.06 997.62 997.03 996.83 995.91 996.37 996.54 997.30 998.15 999.91 1001.81 1003.49 1005.44 1006.93 1008.45 1009.95 1011.25 1012.36 1013.21 1014.06 1014.58 1015.13 1015.94 1016.97 1017.96 1018.58 1019.18 1019.89 1020.41 1020.80 1021.27 1022.23 1022.83 1023.18 1023.75 1024.19 1024.50 1024.87 1025.26 1025.51 1025.89 1026.42 1026.76 1026.80 1027.23
998.61 998.84 998.71 998.35 998.05 997.14 996.72 996.60 996.21 996.17 996.28 996.93 997.87 999.25 1000.69 1002.30 1003.86 1005.60 1007.40 1008.90 1010.32 1011.63 1012.81 1013.72 1014.19 1014.90 1015.66 1016.67 1017.64 1018.30 1019.09 1019.88 1020.44 1020.72 1021.29 1022.25 1022.87 1023.20 1023.59 1024.18 1024.42 1024.71 1025.24 1025.61 1026.02 1026.56 1027.18 1027.27 1027.46
998.47 998.00 998.42 998.21 998.32 997.87 997.40 997.29 997.81 997.43 996.72 997.43 998.07 998.89 999.88 1001.12 1002.61 1004.33 1006.24 1008.01 1009.60 1010.88 1012.03 1013.01 1013.78 1014.42 1015.31 1016.25 1017.15 1018.06 1018.91 1019.66 1020.26 1020.59 1021.27 1022.16 1022.68 1023.14 1023.48 1024.15 1024.44 1024.61 1025.16 1025.82 1026.30 1026.70 1027.19 1027.63 1027.78
Thickness
5716 5718 5729 5737 5719 5725 5730 5738 5757 5758 5757 5769 5771 5771 5767 5774 5760 5745 5759 5758 5756 5748 5738 5730 5724 5721 5719 5717 5715 5714 5711 5709 5706 5704 5703 5702 5701 5701 5699 5700 5701 5701 5701 5702 5701 5700 5700 5700 5699
5712 5716 5719 5724 5707 5711 5727 5748 5744 5758 5762 5765 5765 5764 5760 5755 5756 5748 5749 5753 5752 5746 5736 5730 5722 5719 5716 5713 5712 5710 5708 5706 5705 5703 5701 5700 5699 5698 5697 5696 5697 5698 5698 5699 5698 5698 5698 5698 5699
5702 5710 5704 5710 5707 5706 5720 5744 5744 5755 5756 5757 5757 5766 5763 5751 5750 5751 5755 5751 5749 5742 5736 5726 5719 5717 5714 5711 5709 5707 5705 5703 5702 5700 5699 5698 5697 5697 5696 5695 5694 5695 5695 5695 5695 5695 5694 5693 5693
5693 5700 5703 5695 5701 5708 5715 5731 5738 5742 5745 5752 5758 5746 5748 5750 5747 5753 5751 5748 5744 5739 5734 5719 5716 5714 5711 5708 5707 5706 5704 5701 5699 5698 5697 5696 5695 5694 5693 5693 5693 5692 5692 5692 5691 5691 5690 5688 5687
5682 5694 5690 5696 5702 5710 5714 5727 5733 5731 5739 5743 5748 5741 5736 5741 5747 5747 5746 5742 5735 5736 5727 5716 5712 5710 5708 5706 5704 5703 5701 5700 5698 5695 5693 5692 5692 5691 5690 5689 5688 5689 5688 5687 5686 5685 5685 5684 5683
5666 5687 5682 5687 5699 5700 5712 5724 5729 5728 5735 5737 5735 5735 5727 5737 5735 5735 5739 5729 5732 5730 5722 5714 5707 5706 5704 5703 5702 5700 5698 5696 5694 5693 5691 5689 5687 5687 5686 5685 5683 5683 5683 5682 5680 5680 5678 5677 5677
5658 5675 5679 5691 5694 5697 5706 5725 5720 5725 5729 5734 5745 5729 5718 5727 5726 5727 5727 5726 5725 5721 5720 5714 5708 5702 5699 5697 5696 5694 5693 5691 5690 5689 5687 5685 5683 5683 5681 5680 5680 5679 5678 5676 5675 5674 5672 5671 5669
5666 5673 5675 5687 5687 5691 5706 5717 5723 5723 5728 5747 5741 5724 5709 5722 5723 5722 5722 5720 5717 5715 5715 5711 5707 5704 5699 5693 5691 5691 5690 5689 5687 5685 5684 5682 5680 5678 5678 5678 5677 5676 5675 5672 5669 5667 5666 5664 5663
5661 5654 5666 5680 5682 5691 5701 5705 5720 5728 5725 5728 5732 5736 5738 5724 5719 5714 5713 5712 5712 5710 5711 5707 5705 5702 5700 5696 5690 5688 5688 5687 5686 5684 5684 5685 5686 5682 5679 5675 5672 5671 5670 5668 5667 5665 5663 5659 5657
5649 5655 5672 5692 5691 5683 5692 5704 5714 5710 5718 5717 5717 5727 5725 5717 5715 5711 5711 5707 5706 5704 5705 5703 5698 5698 5697 5697 5692 5691 5688 5688 5688 5687 5685 5687 5685 5683 5679 5671 5668 5666 5664 5661 5660 5659 5659 5658 5654
5652 5653 5672 5678 5679 5682 5686 5693 5707 5709 5706 5719 5714 5709 5709 5710 5709 5709 5709 5709 5707 5704 5701 5697 5689 5691 5694 5694 5694 5693 5691 5689 5686 5686 5686 5683 5681 5677 5674 5670 5665 5663 5661 5659 5657 5657 5658 5655 5653
5635 5655 5656 5666 5664 5665 5674 5693 5692 5703 5712 5721 5720 5707 5701 5703 5708 5711 5715 5713 5707 5704 5702 5694 5685 5687 5689 5691 5692 5691 5691 5688 5686 5683 5681 5678 5676 5674 5677 5672 5665 5662 5660 5658 5655 5653 5649 5645 5641
5629 5646 5647 5654 5659 5666 5671 5679 5683 5692 5708 5710 5707 5698 5697 5700 5705 5707 5714 5713 5705 5703 5702 5692 5684 5687 5687 5686 5688 5689 5684 5684 5679 5677 5676 5676 5674 5673 5673 5671 5662 5657 5656 5653 5650 5644 5640 5637 5632
5630 5634 5643 5649 5656 5660 5658 5670 5682 5686 5694 5696 5692 5693 5695 5702 5707 5703 5707 5705 5700 5698 5695 5691 5687 5686 5684 5684 5681 5680 5679 5675 5675 5673 5672 5670 5671 5669 5669 5666 5657 5652 5650 5647 5642 5636 5633 5628 5620
5617 5615 5629 5643 5652 5653 5653 5647 5665 5682 5682 5684 5682 5690 5691 5696 5697 5700 5700 5697 5694 5691 5687 5684 5686 5682 5680 5677 5675 5675 5674 5673 5671 5668 5666 5666 5665 5663 5662 5656 5653 5649 5644 5638 5634 5631 5626 5621 5615
5597 5607 5614 5639 5645 5649 5643 5646 5665 5675 5670 5672 5680 5686 5689 5691 5696 5695 5694 5692 5687 5684 5674 5679 5682 5678 5675 5672 5671 5670 5667 5667 5664 5663 5661 5660 5659 5659 5658 5657 5654 5648 5641 5637 5632 5626 5621 5616 5610
5591 5607 5612 5632 5644 5641 5641 5641 5663 5665 5664 5668 5672 5677 5687 5686 5692 5688 5687 5685 5680 5673 5663 5669 5675 5673 5669 5664 5664 5662 5659 5660 5657 5656 5656 5653 5653 5653 5654 5651 5647 5642 5638 5633 5628 5622 5615 5609 5604
5604 5604 5621 5621 5635 5635 5633 5637 5649 5648 5660 5668 5672 5678 5686 5686 5690 5687 5683 5677 5670 5660 5659 5667 5668 5665 5661 5661 5657 5656 5655 5653 5651 5650 5650 5648 5648 5646 5646 5644 5641 5638 5634 5629 5624 5615 5609 5604 5597
5607 5601 5611 5622 5633 5626 5633 5633 5642 5649 5653 5664 5673 5677 5686 5684 5688 5683 5679 5668 5660 5653 5654 5661 5663 5656 5654 5657 5655 5653 5652 5649 5645 5643 5642 5642 5642 5642 5641 5640 5636 5634 5630 5626 5619 5612 5604 5595 5587
5579 5590 5599 5609 5621 5621 5627 5631 5638 5639 5651 5666 5673 5680 5685 5680 5681 5677 5670 5663 5659 5658 5652 5655 5655 5654 5653 5654 5654 5653 5649 5646 5640 5637 5636 5637 5636 5636 5636 5635 5632 5630 5626 5618 5611 5606 5600 5593 5588
5562 5580 5594 5603 5609 5613 5618 5618 5627 5636 5646 5662 5677 5683 5684 5676 5673 5665 5662 5661 5659 5655 5657 5655 5655 5651 5651 5650 5648 5646 5640 5635 5634 5633 5632 5630 5631 5630 5628 5628 5627 5623 5618 5612 5606 5603 5602 5595 5588
5553 5577 5588 5594 5598 5598 5620 5617 5630 5640 5642 5656 5664 5669 5673 5671 5668 5659 5658 5657 5659 5659 5656 5657 5655 5651 5646 5643 5645 5642 5641 5640 5636 5633 5629 5626 5625 5624 5623 5621 5620 5616 5615 5610 5605 5599 5598 5596 5589
5555 5570 5573 5586 5595 5607 5607 5619 5643 5644 5641 5653 5664 5666 5669 5672 5670 5659 5660 5658 5656 5657 5656 5655 5651 5647 5642 5642 5642 5639 5639 5636 5631 5629 5622 5622 5619 5618 5617 5615 5614 5611 5609 5607 5602 5597 5594 5592 5591
5554 5555 5562 5572 5580 5579 5618 5619 5643 5649 5654 5660 5669 5669 5662 5665 5661 5658 5657 5654 5652 5654 5651 5654 5647 5643 5641 5641 5637 5637 5635 5630 5629 5628 5623 5620 5617 5613 5610 5609 5608 5606 5602 5600 5596 5591 5590 5589 5586
5539 5549 5546 5543 5553 5582 5618 5617 5648 5668 5668 5672 5675 5672 5661 5662 5658 5657 5655 5654 5651 5651 5649 5652 5648 5642 5639 5639 5635 5635 5631 5628 5628 5628 5624 5617 5614 5609 5604 5604 5602 5600 5595 5593 5589 5586 5587 5585 5581
5538 5557 5562 5555 5578 5597 5624 5608 5636 5666 5681 5677 5678 5669 5660 5658 5661 5660 5656 5654 5650 5648 5644 5646 5646 5643 5639 5635 5634 5631 5628 5628 5627 5626 5623 5616 5612 5607 5600 5598 5596 5593 5589 5588 5584 5580 5582 5579 5575
5544 5553 5593 5596 5610 5604 5610 5620 5648 5661 5667 5673 5674 5667 5662 5658 5658 5659 5653 5650 5646 5645 5645 5645 5643 5639 5637 5634 5630 5627 5627 5626 5624 5622 5617 5610 5605 5601 5596 5595 5591 5587 5584 5582 5579 5575 5575 5573 5568
5554 5578 5576 5581 5576 5584 5613 5617 5634 5647 5661 5669 5672 5667 5662 5664 5656 5656 5655 5650 5647 5644 5641 5637 5639 5639 5636 5632 5628 5626 5624 5620 5618 5618 5614 5605 5600 5597 5593 5590 5586 5583 5579 5577 5573 5568 5564 5565 5561
5554 5556 5571 5590 5594 5600 5606 5615 5653 5658 5670 5671 5673 5673 5669 5666 5666 5664 5656 5653 5647 5644 5638 5635 5637 5638 5634 5631 5626 5624 5621 5616 5614 5614 5610 5601 5596 5594 5591 5586 5583 5581 5576 5573 5568 5563 5557 5557 5555
5564 5572 5576 5572 5579 5603 5614 5621 5630 5649 5671 5671 5671 5673 5677 5677 5675 5671 5660 5652 5646 5643 5640 5638 5638 5638 5633 5629 5625 5622 5618 5613 5611 5611 5606 5598 5594 5590 5588 5582 5579 5578 5572 5566 5561 5558 5553 5549 5549